Regional Weather Roundup
Issued by NWS Bismarck, ND

Home | Current Version | Previous Version | Text Only | Print | Product List | Glossary On
Versions: 1 2 3 4 5 6 7 8 9 10 11 12 13 14 15 16 17 18 19 20 21 22 23 24 25 26 27 28 29 30 31 32 33 34 35 36 37 38 39 40 41 42 43 44 45 46 47 48 49 50
000
ASUS43 KBIS 012210
RWRBIS

NWR BROADCAST TEXT
NATIONAL WEATHER SERVICE BISMARCK ND
500 PM CDT TUE SEP 01 2015

NOTE: "FAIR" INDICATES FEW OR NO CLOUDS BELOW 12,000 FEET WITH NO
SIGNIFICANT WEATHER AND/OR OBSTRUCTIONS TO VISIBILITY.


CITY           SKY/WX    TMP DP  RH WIND       PRES   REMARKS
WILLISTON      SUNNY     93  45  19 SW12      29.73F
MINOT          SUNNY     89  52  28 S17       29.75F
MINOT AFB      NOT AVBL
BISMARCK       SUNNY     88  62  41 SE8       29.78F
DICKINSON      SUNNY     88  55  32 SE13      29.78F
GARRISON         N/A     89  57  33 S12       29.78F
HETTINGER ARPT SUNNY     88  55  32 SE8       29.81F
JAMESTOWN      SUNNY     86  64  47 SE10      29.81F
CROSBY         FAIR      90  46  22 SW14G23   29.72F
HARVEY         FAIR      86  52  30 S12       29.79F
HAZEN          FAIR      86  59  39 S12G20    29.78S
LINTON         FAIR      90  70  51 S12       29.79S HX  95
OAKES            N/A     86  82  89 E9G16     29.81S HX 105
RUGBY          FAIR      86  55  35 S13G18    29.78F
STANLEY        FAIR      84  57  39 S16       29.78F
$$

CITY           SKY/WX    TMP DP  RH WIND       PRES   REMARKS
GRAND FORKS    MOSUNNY   88  52  29 S13       29.81F
GRAND FORKS AF SUNNY     87  50  28 S10       29.82F
DEVILS LAKE    SUNNY     84  52  32 SE14      29.81S
FARGO          MOSUNNY   89  51  27 E13G18    29.81F
CAVALIER       FAIR      86  54  32 SW9       29.80S
GRAFTON        FAIR      86  55  35 S9G16     29.82S
GWINNER        FAIR      88  70  55 E12       29.82S HX  92
LANGDON        FAIR      88  50  27 SW14G22   29.83S
ROLLA            N/A     84  54  34 SW14      29.81F
WALHALLA       FAIR      86  55  35 MISG      29.79S
$$

CITY           SKY/WX    TMP DP  RH WIND       PRES   REMARKS
ABERDEEN       SUNNY     86  71  60 S15       29.81F HX  91
MOBRIDGE       SUNNY     91  66  43 SE15      29.74F HX  93
BUFFALO          N/A     88  56  33 CALM      29.76F
RAPID CITY     SUNNY     87  58  37 NE9       29.84F
GLASGOW        SUNNY     87  36  16 W14G22    29.74F
SIDNEY         SUNNY     93  46  20 S15       29.72F
WOLF POINT     SUNNY     89  37  16 W13       29.74F
GLENDIVE       MOSUNNY   93  43  17 SW13G18   29.76F
MILES CITY     SUNNY     92  36  14 W8        29.77F
BAKER          SUNNY     92  42  17 VRB3      29.81F
$$

CITY           SKY/WX    TMP DP  RH WIND       PRES   REMARKS
BILLINGS       MOSUNNY   89  27  10 S3        29.81F
GREAT FALLS    PTSUNNY   84  32  15 SW14G30   29.80F
REGINA         PTSUNNY   81  43  26 W17G25    29.71S
ESTEVAN        MOSUNNY   90  48  24 S16G24    29.72F
$$




USA.gov is the U.S. government's official web portal to all federal, state and local government web resources and services.